Total_Precipitation_Accumulation
0.24 0.22 0.30 0.49 0.60 0.54 0.58 0.68 0.92 0.79 0.63 0.58 0.55 0.58 0.60 0.64 0.67 0.64 0.67 0.67 0.64 0.60 0.62 0.68 0.68 0.65 0.69 0.76 0.86 1.01 1.08 0.97 0.83 0.70 0.60 0.55 0.58 0.55 0.57 0.63 0.65 0.71 0.77 0.88
0.09 0.10 0.19 0.41 0.51 0.54 0.54 0.53 0.53 0.45 0.41 0.32 0.31 0.37 0.39 0.42 0.42 0.39 0.41 0.42 0.40 0.36 0.34 0.39 0.38 0.39 0.43 0.52 0.67 0.88 0.96 0.83 0.66 0.58 0.56 0.52 0.50 0.47 0.46 0.48 0.54 0.59 0.64 0.80
0.13 0.11 0.19 0.42 0.43 0.48 0.38 0.24 0.21 0.25 0.25 0.18 0.20 0.29 0.31 0.35 0.36 0.31 0.30 0.32 0.31 0.30 0.26 0.27 0.27 0.30 0.37 0.44 0.56 0.66 0.69 0.64 0.52 0.45 0.43 0.41 0.40 0.40 0.42 0.44 0.47 0.52 0.57 0.73
0.21 0.20 0.41 0.62 0.48 0.40 0.34 0.20 0.13 0.13 0.12 0.13 0.17 0.23 0.23 0.28 0.34 0.30 0.26 0.27 0.26 0.27 0.28 0.30 0.34 0.36 0.45 0.49 0.49 0.52 0.59 0.59 0.50 0.42 0.39 0.38 0.36 0.37 0.45 0.46 0.44 0.49 0.55 0.59
0.30 0.31 0.42 0.49 0.33 0.29 0.37 0.36 0.15 0.11 0.11 0.11 0.13 0.17 0.16 0.18 0.22 0.22 0.19 0.17 0.17 0.17 0.17 0.19 0.21 0.25 0.27 0.28 0.29 0.32 0.36 0.41 0.38 0.32 0.34 0.37 0.36 0.40 0.44 0.44 0.48 0.51 0.55 0.58
0.36 0.36 0.47 0.39 0.18 0.14 0.27 0.48 0.20 0.08 0.07 0.05 0.07 0.11 0.09 0.08 0.09 0.10 0.10 0.08 0.07 0.07 0.08 0.08 0.08 0.12 0.15 0.12 0.10 0.11 0.13 0.19 0.21 0.21 0.24 0.31 0.40 0.46 0.44 0.42 0.47 0.49 0.48 0.48
0.46 0.57 0.71 0.49 0.23 0.16 0.35 0.46 0.18 0.06 0.03 0.03 0.03 0.03 0.04 0.05 0.07 0.05 0.05 0.05 0.04 0.04 0.05 0.06 0.06 0.07 0.10 0.08 0.05 0.05 0.06 0.08 0.09 0.13 0.19 0.28 0.35 0.34 0.35 0.37 0.41 0.42 0.45 0.44
0.63 0.82 0.99 0.64 0.41 0.36 0.31 0.18 0.08 0.03 0.02 0.02 0.02 0.02 0.03 0.06 0.06 0.05 0.05 0.04 0.03 0.03 0.05 0.05 0.04 0.04 0.06 0.06 0.04 0.04 0.04 0.05 0.05 0.06 0.09 0.14 0.21 0.24 0.27 0.31 0.33 0.33 0.33 0.34
0.68 0.72 0.66 0.49 0.38 0.26 0.19 0.12 0.04 0.02 0.02 0.02 0.01 0.01 0.02 0.03 0.04 0.04 0.02 0.02 0.03 0.04 0.04 0.04 0.03 0.03 0.03 0.05 0.06 0.05 0.03 0.03 0.03 0.03 0.04 0.07 0.13 0.18 0.22 0.28 0.30 0.29 0.27 0.29
0.26 0.29 0.27 0.22 0.18 0.13 0.09 0.06 0.02 0.02 0.02 0.02 0.02 0.01 0.02 0.02 0.03 0.03 0.02 0.02 0.04 0.05 0.05 0.04 0.03 0.04 0.04 0.05 0.06 0.05 0.04 0.03 0.03 0.03 0.04 0.05 0.07 0.14 0.22 0.25 0.24 0.24 0.27 0.29
0.11 0.11 0.11 0.11 0.10 0.09 0.06 0.03 0.02 0.01 0.02 0.03 0.02 0.02 0.02 0.03 0.04 0.04 0.02 0.02 0.03 0.04 0.05 0.05 0.04 0.03 0.04 0.04 0.04 0.05 0.04 0.03 0.03 0.03 0.03 0.03 0.03 0.07 0.14 0.17 0.16 0.19 0.24 0.29
0.08 0.06 0.06 0.08 0.06 0.05 0.05 0.03 0.03 0.02 0.02 0.02 0.02 0.02 0.03 0.03 0.02 0.03 0.03 0.02 0.02 0.03 0.04 0.06 0.06 0.04 0.04 0.05 0.04 0.05 0.05 0.03 0.03 0.03 0.04 0.04 0.04 0.05 0.07 0.08 0.10 0.10 0.11 0.16
0.06 0.04 0.04 0.05 0.04 0.04 0.04 0.04 0.04 0.03 0.03 0.04 0.03 0.03 0.02 0.02 0.03 0.03 0.04 0.03 0.02 0.02 0.04 0.05 0.05 0.05 0.05 0.06 0.06 0.05 0.05 0.04 0.03 0.03 0.03 0.04 0.04 0.07 0.08 0.05 0.03 0.03 0.04 0.06
0.04 0.03 0.03 0.04 0.04 0.04 0.04 0.04 0.05 0.05 0.06 0.06 0.04 0.03 0.03 0.02 0.02 0.02 0.03 0.03 0.03 0.03 0.05 0.06 0.05 0.05 0.06 0.07 0.07 0.06 0.06 0.06 0.04 0.04 0.04 0.05 0.06 0.09 0.15 0.18 0.13 0.06 0.04 0.04
0.05 0.04 0.05 0.05 0.04 0.04 0.04 0.04 0.05 0.05 0.06 0.06 0.04 0.03 0.02 0.02 0.03 0.04 0.03 0.04 0.04 0.04 0.05 0.05 0.05 0.06 0.06 0.06 0.06 0.06 0.07 0.07 0.06 0.08 0.08 0.08 0.10 0.14 0.16 0.16 0.12 0.08 0.06 0.05
0.08 0.05 0.05 0.06 0.05 0.05 0.04 0.04 0.05 0.04 0.05 0.06 0.03 0.02 0.01 0.02 0.03 0.07 0.05 0.03 0.04 0.04 0.04 0.04 0.04 0.05 0.05 0.05 0.05 0.05 0.06 0.07 0.07 0.08 0.09 0.08 0.08 0.10 0.12 0.12 0.09 0.08 0.08 0.08
0.07 0.08 0.07 0.06 0.06 0.06 0.05 0.05 0.05 0.04 0.03 0.04 0.04 0.02 0.01 0.01 0.03 0.06 0.06 0.04 0.04 0.03 0.03 0.04 0.05 0.05 0.05 0.04 0.04 0.04 0.05 0.05 0.06 0.07 0.09 0.08 0.08 0.06 0.07 0.09 0.08 0.07 0.07 0.07
0.05 0.06 0.06 0.06 0.06 0.07 0.06 0.06 0.05 0.04 0.03 0.03 0.02 0.02 0.02 0.02 0.03 0.05 0.06 0.04 0.05 0.04 0.04 0.04 0.04 0.04 0.05 0.05 0.04 0.04 0.04 0.04 0.05 0.07 0.10 0.10 0.09 0.08 0.08 0.09 0.08 0.08 0.08 0.08
0.04 0.03 0.03 0.03 0.04 0.05 0.06 0.06 0.06 0.05 0.03 0.02 0.02 0.02 0.02 0.02 0.03 0.04 0.05 0.06 0.07 0.07 0.06 0.05 0.06 0.05 0.05 0.05 0.05 0.04 0.04 0.04 0.05 0.07 0.10 0.09 0.09 0.09 0.09 0.10 0.10 0.09 0.09 0.09
0.06 0.05 0.05 0.04 0.03 0.03 0.03 0.04 0.05 0.06 0.05 0.04 0.03 0.03 0.03 0.03 0.02 0.03 0.04 0.05 0.07 0.07 0.07 0.09 0.10 0.10 0.08 0.07 0.08 0.07 0.06 0.08 0.09 0.11 0.11 0.10 0.10 0.11 0.11 0.10 0.11 0.10 0.11 0.12
0.06 0.06 0.05 0.04 0.03 0.03 0.02 0.03 0.03 0.04 0.05 0.05 0.05 0.05 0.04 0.03 0.02 0.02 0.02 0.03 0.04 0.05 0.06 0.09 0.12 0.14 0.14 0.13 0.12 0.10 0.10 0.11 0.12 0.13 0.12 0.12 0.11 0.11 0.12 0.12 0.12 0.13 0.14 0.14
0.07 0.05 0.04 0.03 0.03 0.02 0.02 0.02 0.02 0.03 0.03 0.05 0.06 0.06 0.05 0.04 0.03 0.02 0.02 0.03 0.03 0.05 0.06 0.09 0.10 0.13 0.17 0.18 0.13 0.12 0.12 0.12 0.12 0.12 0.13 0.14 0.15 0.15 0.16 0.17 0.17 0.17 0.16 0.17
0.08 0.08 0.06 0.05 0.05 0.04 0.03 0.03 0.03 0.03 0.04 0.05 0.05 0.04 0.04 0.05 0.05 0.05 0.05 0.04 0.04 0.05 0.06 0.07 0.09 0.13 0.20 0.16 0.11 0.09 0.09 0.10 0.11 0.11 0.12 0.15 0.17 0.19 0.19 0.20 0.21 0.21 0.23 0.23
0.08 0.09 0.08 0.07 0.07 0.07 0.07 0.06 0.05 0.06 0.06 0.06 0.07 0.07 0.07 0.08 0.09 0.09 0.08 0.08 0.08 0.09 0.08 0.09 0.12 0.18 0.21 0.15 0.12 0.11 0.11 0.12 0.12 0.13 0.14 0.16 0.18 0.19 0.22 0.23 0.24 0.24 0.26 0.29
0.08 0.07 0.08 0.08 0.08 0.08 0.08 0.08 0.07 0.07 0.07 0.07 0.08 0.09 0.09 0.09 0.11 0.12 0.12 0.12 0.13 0.15 0.15 0.16 0.19 0.22 0.20 0.17 0.17 0.17 0.17 0.18 0.19 0.20 0.19 0.20 0.21 0.23 0.25 0.27 0.29 0.30 0.31 0.33
0.09 0.08 0.08 0.08 0.08 0.08 0.08 0.08 0.09 0.09 0.09 0.09 0.09 0.10 0.10 0.11 0.12 0.14 0.16 0.16 0.17 0.19 0.20 0.21 0.22 0.23 0.23 0.23 0.23 0.24 0.25 0.25 0.24 0.23 0.22 0.23 0.25 0.26 0.27 0.30 0.33 0.37 0.39 0.39
0.10 0.08 0.08 0.09 0.09 0.09 0.09 0.10 0.11 0.11 0.12 0.13 0.12 0.12 0.11 0.11 0.12 0.13 0.14 0.16 0.18 0.20 0.22 0.24 0.25 0.25 0.25 0.25 0.26 0.26 0.26 0.27 0.27 0.27 0.28 0.29 0.30 0.31 0.31 0.32 0.36 0.39 0.41 0.44